Location: Sudbury
(46.5221°N, 80.9530°W)
Time: 10:50:54
(UTC-05:00)

ISS - Visible Passes

Search period start: 19 February 2018 00:00
Search period end: 01 March 2018 00:00
Orbit: 403 x 407 km, 51.6° (Epoch: 20 February)

Date Brightness Start Highest point End Pass type
(mag) Time Alt. Az. Time Alt. Az. Time Alt. Az.
26 Feb -1.7 06:34:28 10° SSW 06:37:17 27° SE 06:40:06 10° E visible
27 Feb -1.0 05:43:07 10° S 05:45:11 16° SE 05:47:16 10° E visible
28 Feb -3.2 06:25:48 10° SW 06:29:00 55° SSE 06:32:13 10° ENE visible
